www.pogodaiklimat.ru

Погода и климат >> Архив погоды >> Россия >> Северная Осетия >> Владикавказ


АРХИВ ПОГОДЫ в Владикавказе

Время (UTC), дата Ветер
(напр.,м/с)
 
Видим.   Явления Облачность Т
(С)
Тd
(С)
f
(%)
Тe
(С)
Тes
(С)
Комфортность P
(гПа)
Po
(гПа)
Тmin
(С)
Tmax
(С)
R
(мм)
R24
(мм)
S
(см)
00 14.02 штиль 0 1000 м дымка 10/0
[As op]
-0.8 -1.8 93 -2 -2 по сезону 1020.2 935.0
03 14.02 штиль 0 1000 м дымка 10/10 300 м
[St]
-0.6 -1.6 93 -2 -2 по сезону 1021.9 936.6 -1.2 0.0
06 14.02 С 1 500 м слабый снег {туман} ?/? -0.4 -1.4 93 -3 -3 по сезону 1023.5 938.1
09 14.02 С 1 10 км {снег, туман} 9/8 300 м
[Cb cap Ac As]
+2.5 -0.3 82 +1 +2 по сезону 1022.8 938.4
12 14.02 С 2 10 км {снег, туман} 10/10 300 м
[Sc]
+2.5 -0.6 80 -1 -1 по сезону 1023.0 938.5
15 14.02 СВ 1 1000 м дымка 10/10 200 м
[St]
+0.4 -1.1 90 -2 -2 по сезону 1025.2 940.0 +3.0 0.0
18 14.02 С 1 1000 м в посл. час туман 10/10 200 м
[St]
+0.1 -1.0 92 -2 -2 по сезону 1025.6 940.2
21 14.02 штиль 0 1000 м дымка 10/10 200 м
[St]
-0.2 -1.3 92 -1 -1 по сезону 1025.5 940.0
00 15.02 С 1 1000 м дымка 10/10 200 м
[St]
-0.2 -1.4 92 -2 -2 по сезону 1025.1 939.7
03 15.02 штиль 0 1000 м дымка 10/10 200 м
[St]
-0.2 -1.7 90 -1 -1 по сезону 1025.4 940.0 -0.4
06 15.02 З 1 1000 м дымка 10/10 200 м
[St]
-0.5 -1.7 92 -3 -3 по сезону 1027.5 941.8 -0.7
09 15.02 штиль 0 1000 м дымка 10/10 300 м
[St]
+0.9 -2.0 81 -0 -0 по сезону 1027.9 942.5
12 15.02 СЗ 1 2000 м дымка 10/10 600 м
[Sc]
+1.4 -2.2 77 -0 -0 по сезону 1028.4 943.2
15 15.02 С 1 2000 м дымка 10/10 600 м
[St]
+0.9 -2.0 81 -1 -1 по сезону 1029.4 943.9 +1.4
18 15.02 СЗ 1 2000 м дымка 10/10 600 м
[Sc]
+0.3 -2.1 84 -2 -2 по сезону 1030.2 944.5
21 15.02 З 1 2000 м дымка 10/10 600 м
[Sc]
-0.0 -2.3 84 -2 -2 по сезону 1029.8 944.0
00 16.02 ЮЗ 1 2000 м дымка 10/10 600 м
[Sc]
-0.4 -3.0 83 -2 -2 по сезону 1029.7 943.8
03 16.02 СЗ 1 2000 м дымка 10/10 600 м
[St]
-0.6 -2.6 86 -3 -3 по сезону 1029.9 943.9 -0.6
06 16.02 СЗ 1 2000 м дымка 10/10 300 м
[St]
-0.5 -2.7 85 -3 -3 по сезону 1030.6 944.6 -0.9
09 16.02 З 1 2000 м дымка 10/10 300 м
[St]
+0.4 -2.5 81 -1 -1 по сезону 1029.2 943.6
12 16.02 СЗ 1 2000 м дымка 10/10 300 м
[St]
+0.7 -2.7 78 -1 -1 по сезону 1028.8 943.3
15 16.02 З 1 2000 м дымка 10/10 300 м
[St]
-0.0 -2.6 83 -2 -2 по сезону 1028.9 943.2 +1.2
18 16.02 СЗ 1 2000 м дымка 10/10 300 м
[St]
-0.2 -2.4 85 -2 -2 по сезону 1028.0 942.3
21 16.02 ЮЗ 1 2000 м дымка 10/10 300 м
[St]
-0.3 -2.5 85 -2 -2 по сезону 1027.1 941.4
00 17.02 штиль 0 2000 м дымка 10/10 300 м
[St]
-0.3 -3.0 82 -1 -1 по сезону 1026.3 940.7
03 17.02 ЮВ 1 2000 м дымка 10/10 300 м
[St]
-0.7 -3.2 83 -3 -3 по сезону 1025.2 939.6 -0.7
06 17.02 Ю 1 2000 м дымка 10/10 300 м
[St]
-0.4 -3.3 81 -2 -2 по сезону 1024.5 939.0 -0.8
09 17.02 С 1 10 км 10/10 300 м
[Sc]
+1.8 -2.6 73 0 0 по сезону 1022.5 937.8
12 17.02 С 1 10 км 4/1 1500 м
[Sc Ac lent Cc]
+4.5 -1.9 63 +4 +6 по сезону 1020.1 936.4
15 17.02 З 2 10 км 10/10 300 м
[St]
+2.4 -1.6 75 -1 -1 по сезону 1021.2 936.8 +4.8
18 17.02 В 1 10 км 10/10 300 м
[St]
+1.9 -1.4 79 0 0 по сезону 1020.5 936.1
21 17.02 З 2 4000 м дымка 10/10 300 м
[St]
+1.4 -1.5 81 -2 -2 по сезону 1019.9 935.3
00 18.02 Ю 1 4000 м дымка 9/9 300 м
[St]
+0.4 -2.2 83 -2 -2 по сезону 1018.7 934.0
03 18.02 штиль 0 4000 м дымка 10/10 300 м
[St]
+0.2 -1.9 86 -1 -1 по сезону 1020.0 935.1 -0.9
06 18.02 штиль 0 10 км 10/0
[Ac As]
+2.8 -1.0 76 +2 +3 тепло 1020.1 935.9
09 18.02 СЗ 2 10 км 9/9 600 м
[Sc]
+4.3 -0.1 73 +2 +3 по сезону 1018.7 935.1
12 18.02 СЗ 2 10 км 10/10 600 м
[Sc]
+4.4 +0.5 76 +2 +2 по сезону 1019.4 935.8
15 18.02 З 1 4000 м дымка 10/10 300 м
[Sc]
+3.7 -0.3 75 +2 +2 по сезону 1020.1 936.2 +5.7
18 18.02 З 1 4000 м дымка 10/10 300 м
[St]
+2.9 +0.3 83 +1 +1 тепло 1020.9 936.8
21 18.02 В 1 4000 м дымка 10/10 300 м
[St]
+2.7 +0.3 84 +1 +1 тепло 1020.1 935.9
00 19.02 СВ 1 4000 м дымка 10/10 300 м
[St]
+2.3 -0.2 84 +1 +1 тепло 1019.7 935.5
03 19.02 СЗ 1 4000 м дымка 10/10 300 м
[St]
+2.3 0.0 85 +1 +1 тепло 1019.4 935.2 +2.2
06 19.02 С 1 4000 м дымка 10/10 300 м
[St]
+2.6 +0.2 84 +1 +1 по сезону 1019.9 935.7 +2.2
09 19.02 В 1 10 км 10/10 300 м
[Sc]
+3.8 -0.5 73 +3 +3 тепло 1018.9 935.2
12 19.02 С 2 10 км 10/10 300 м
[Sc]
+3.6 +0.3 79 +1 +1 по сезону 1019.0 935.2
15 19.02 СВ 1 10 км 10/10 300 м
[Sc]
+3.2 -0.1 79 +2 +2 по сезону 1020.1 936.1 +5.1
18 19.02 штиль 0 10 км 10/10 300 м
[Sc]
+2.6 +0.5 86 +2 +2 тепло 1021.2 936.9
21 19.02 штиль 0 10 км 5/5 600 м
[Sc]
-0.4 -1.8 90 -2 -2 по сезону 1021.1 935.9
00 20.02 Ю 1 10 км 5/5 600 м
[Sc]
-0.6 -1.8 92 -3 -3 по сезону 1020.3 935.1
03 20.02 штиль 0 10 км ясно -2.1 -3.8 88 -3 -3 по сезону 1020.7 935.0 -2.1
06 20.02 СЗ 1 20 км 9/0
[Ac As]
+0.3 -1.7 86 -2 -0 по сезону 1019.8 935.0 -2.7
09 20.02 СЗ 2 500 м туман ?/? +0.4 -0.8 92 -3 -3 по сезону 1020.1 935.2
12 20.02 З 1 1000 м в посл. час туман 10/10 300 м
[St]
+1.0 -0.2 92 -1 -1 по сезону 1020.0 935.3
15 20.02 З 1 1000 м дымка {туман} 10/10 300 м
[St]
+1.1 -0.7 88 -1 -1 по сезону 1020.3 935.6 +1.2
18 20.02 штиль 0 1000 м дымка 10/10 300 м
[St]
+0.9 -0.8 88 -0 -0 по сезону 1020.6 935.9

 

Местоположение метеостанции Владикавказ (Северная Осетия, Россия): широта 43.03 долгота 44.68 высота над уровнем моря 703 м.

В архиве по умолчанию представлена погода в Владикавказе за последнюю неделю. Архивные данные за месяц целиком и за предыдущие месяцы, начиная с января 2011 года, Вы можете получить, выбрав интересующий диапазон дат из раскрывающегося списка и нажав кнопку "Ввод!".

Внимание! Время в таблицах - всемирное. Для получения местного времени необходимо прибавить поправку, которая в Владикавказе равна 3 ч.

Смотрите также архив погоды в соседних городах и на ближайших метеорологических станциях:

Погода в Назрани (Ингушетия, Россия) (19 км)
Погода в Алагире (Северная Осетия, Россия) (35 км)
Погода в ?????????? (Грузия) (76 км)
Погода в Моздоке (Северная Осетия, Россия) (78 км)
Погода в Шатое (Чечня, Россия) (83 км)
Погода в Наурской (Чечня, Россия) (86 км)
Погода в Грозном (Чечня, Россия) (88 км)
Погода в Прохладный (Кабардино-Балкария, Россия) (95 км)
Погода в Нальчике (Кабардино-Балкария, Россия) (102 км)
Погода в Гудермесе (Чечня, Россия) (122 км)

Пояснения к столбцам:

Ветер - указаны скорость ветра в м/с - средняя за 10 мин, порывы в срок и между сроками (в фигурных скобках) и направление, откуда дует ветер: С - северный, СВ - северо-восточный, В - восточный, ЮВ - юго-восточный, Ю - южный, ЮЗ - юго-западный, З - западный, СЗ - северо-западный.
Видимость - горизонтальная дальность видимости в метрах или километрах. При видимости от 1 до 10 км при отсутствии осадков обычно наблюдается дымка, при ухудшении видимости до 1 км и менее - туман. В сухую погоду видимость может ухудшаться дымом, пылью или мглою.
Явления - указаны атмосферные явления, наблюдавшиеся в срок или в последний час перед сроком; фигурными скобками обозначены явления, наблюдавшиеся между сроками (за 1-3 часа до срока); квадратными скобками обозначены град или гололедные отложения с указанием их диаметра в мм.
Облачность - указаны через наклонную черту общая и нижняя облачность в баллах и высота нижней границы облаков в метрах; квадратными скобками обозначены формы облаков: Ci - перистые, Cs - перисто-слоистые, Cc - перисто-кучевые, Ac - высококучевые, As - высокослоистые, Sc - слоисто-кучевые, Ns - слоисто-дождевые, Cu - кучевые, Cb - кучево-дождевые. Подробнее классификацию облаков см. в Атласе облаков (PDF).
T - Температура воздуха - температура, измеренная на высоте 2 м над землей.
Td - Температура точки росы - температура, при понижении до которой содержащийся в воздухе водяной пар достигнет насыщения.
f - Относительная влажность воздуха - влажноcть воздуха, измеренная на высоте 2 м над землей.
Te - Эффективная температура - температура, которую ощущает одетый по сезону человек в тени. Характеристика душности погоды. При расчете учитывается влияние влажности воздуха и скорости ветра на теплоощущения человека.
Tes - Эффективная температура на солнце - температура, которую ощущает человек, с поправкой на солнечный нагрев. Характеристика знойности погоды. Зависит от высоты солнца над горизонтом, облачности и скорости ветра. Ночью, в пасмурную погоду, а также при ветре 12 м/с и более поправка равна нулю.
P - Атмосферное давление - приведенное к уровню моря атмосферное давление.
Po - Атмосферное давление - измеренное на уровне метеостанции атмосферное давление.
Tmin - Минимальная температура - минимум температуры воздуха на высоте 2 м над землей.
Tmax - Максимальная температура - максимум температуры воздуха на высоте 2 м над землей.
R - Количество осадков - Количество выпавших осадков за период времени, мм. При наведении курсора мыши на число - период времени, за который выпало указанное количество осадков.
R24 - Количество осадков - Количество выпавших осадков за 24 часа, мм.
S - Снежный покров - Высота снежного покрова, см. При наведении курсора мыши на число - состояние снежного покрова и степень покрытия местности в баллах.